Station Historical Data
Daily Summary for September 12, 2017 Units:  English    Metric   Both
Next Day »
Daily Weekly Monthly Yearly Custom
  High: Low: Average:
Temperature: 87.9 °F 71.0 °F 77.7 °F
Dew Point: 59.5 °F 50.8 °F 55.2 °F
Humidity: 60% 36% 46%
Wind Speed: 15.0mph 0.0mph 2mph
Wind Gust: 20.0mph - -
Wind- - SSE
Pressure: 29.91 in 29.78 in -
Precipitation: 0.00 in    
Historical Graphs
 
 
Tabular Data for September 12, 2017
Time Temperature Dew Point Pressure Wind Wind Speed Wind Gust Humidity Rainfall Rate (Hourly) solar Conditions
00:02 75.3 °F 54.3 °F 29.90 in SSE 6.0 mph 8.0 mph 48% 0.00 in 0.00 W/m2
00:07 75.1 °F 54.1 °F 29.91 in ESE 2.0 mph 17.0 mph 48% 0.00 in 0.00 W/m2
00:12 74.9 °F 54.5 °F 29.90 in ESE 2.0 mph 13.0 mph 49% 0.00 in 0.00 W/m2
00:17 74.8 °F 54.4 °F 29.90 in East 7.0 mph 14.0 mph 49% 0.00 in 0.00 W/m2
00:22 74.6 °F 54.2 °F 29.90 in ESE 1.0 mph 19.0 mph 49% 0.00 in 0.00 W/m2
00:27 74.5 °F 54.1 °F 29.90 in ESE 8.0 mph 14.0 mph 49% 0.00 in 0.00 W/m2
00:32 74.4 °F 54.0 °F 29.89 in Calm   14.0 mph 49% 0.00 in 0.00 W/m2
00:37 74.4 °F 54.0 °F 29.89 in SE 2.0 mph 15.0 mph 49% 0.00 in 0.00 W/m2
00:42 74.4 °F 54.0 °F 29.89 in ESE 5.0 mph 9.0 mph 49% 0.00 in 0.00 W/m2
00:47 74.4 °F 54.0 °F 29.88 in East 14.0 mph 20.0 mph 49% 0.00 in 0.00 W/m2
00:52 74.5 °F 53.5 °F 29.88 in ESE 1.0 mph 13.0 mph 48% 0.00 in 0.00 W/m2
00:57 74.6 °F 53.1 °F 29.87 in ESE 5.0 mph 13.0 mph 47% 0.00 in 0.00 W/m2
01:02 74.7 °F 53.2 °F 29.87 in East 2.0 mph 13.0 mph 47% 0.00 in 0.00 W/m2
01:08 74.9 °F 52.8 °F 29.87 in East 8.0 mph 9.0 mph 46% 0.00 in 0.00 W/m2
01:13 75.0 °F 52.2 °F 29.86 in East 1.0 mph 12.0 mph 45% 0.00 in 0.00 W/m2
01:18 75.2 °F 52.4 °F 29.86 in Calm   10.0 mph 45% 0.00 in 0.00 W/m2
01:23 75.3 °F 52.5 °F 29.86 in East 8.0 mph 14.0 mph 45% 0.00 in 0.00 W/m2
01:28 75.5 °F 52.7 °F 29.86 in East 6.0 mph 11.0 mph 45% 0.00 in 0.00 W/m2
01:33 75.6 °F 52.8 °F 29.85 in Calm   13.0 mph 45% 0.00 in 0.00 W/m2
01:37 75.7 °F 52.9 °F 29.85 in Calm   13.0 mph 45% 0.00 in 0.00 W/m2
01:42 75.7 °F 52.3 °F 29.84 in East 4.0 mph 9.0 mph 44% 0.00 in 0.00 W/m2
01:47 75.7 °F 52.3 °F 29.84 in Calm   7.0 mph 44% 0.00 in 0.00 W/m2
01:52 75.8 °F 52.4 °F 29.84 in East 2.0 mph 7.0 mph 44% 0.00 in 0.00 W/m2
01:57 75.7 °F 52.3 °F 29.84 in Calm   5.0 mph 44% 0.00 in 0.00 W/m2
02:02 75.7 °F 52.3 °F 29.84 in Calm   6.0 mph 44% 0.00 in 0.00 W/m2
02:07 75.6 °F 52.2 °F 29.84 in Calm   5.0 mph 44% 0.00 in 0.00 W/m2
02:12 75.5 °F 52.1 °F 29.84 in Calm   5.0 mph 44% 0.00 in 0.00 W/m2
02:17 75.5 °F 52.1 °F 29.85 in ESE 2.0 mph 6.0 mph 44% 0.00 in 0.00 W/m2
02:22 75.4 °F 52.0 °F 29.84 in East 6.0 mph 13.0 mph 44% 0.00 in 0.00 W/m2
02:27 75.3 °F 51.9 °F 29.85 in East 11.0 mph 13.0 mph 44% 0.00 in 0.00 W/m2
02:32 75.3 °F 51.9 °F 29.85 in Calm   8.0 mph 44% 0.00 in 0.00 W/m2
02:37 75.2 °F 51.8 °F 29.85 in East 11.0 mph 11.0 mph 44% 0.00 in 0.00 W/m2
02:42 75.2 °F 51.8 °F 29.85 in East 8.0 mph 12.0 mph 44% 0.00 in 0.00 W/m2
02:47 75.2 °F 52.4 °F 29.85 in East 1.0 mph 15.0 mph 45% 0.00 in 0.00 W/m2
02:52 75.1 °F 52.3 °F 29.85 in ESE 4.0 mph 14.0 mph 45% 0.00 in 0.00 W/m2
02:57 75.1 °F 52.3 °F 29.85 in East 2.0 mph 9.0 mph 45% 0.00 in 0.00 W/m2
03:02 75.0 °F 52.2 °F 29.85 in East 9.0 mph 12.0 mph 45% 0.00 in 0.00 W/m2
03:07 74.9 °F 52.2 °F 29.85 in East 12.0 mph 13.0 mph 45% 0.00 in 0.00 W/m2
03:12 74.9 °F 51.5 °F 29.85 in ESE 1.0 mph 9.0 mph 44% 0.00 in 0.00 W/m2
03:18 74.8 °F 52.1 °F 29.85 in Calm   12.0 mph 45% 0.00 in 0.00 W/m2
03:23 74.8 °F 52.1 °F 29.85 in ESE 9.0 mph 14.0 mph 45% 0.00 in 0.00 W/m2
03:28 74.8 °F 52.1 °F 29.85 in ESE 2.0 mph 12.0 mph 45% 0.00 in 0.00 W/m2
03:33 74.7 °F 52.0 °F 29.85 in Calm   13.0 mph 45% 0.00 in 0.00 W/m2
03:38 74.7 °F 52.0 °F 29.85 in ESE 13.0 mph 15.0 mph 45% 0.00 in 0.00 W/m2
03:43 74.7 °F 52.0 °F 29.85 in ESE 11.0 mph 11.0 mph 45% 0.00 in 0.00 W/m2
03:48 74.7 °F 52.0 °F 29.85 in Calm   8.0 mph 45% 0.00 in 0.00 W/m2
03:53 74.7 °F 52.0 °F 29.85 in Calm   11.0 mph 45% 0.00 in 0.00 W/m2
03:58 74.6 °F 51.9 °F 29.85 in East 9.0 mph 11.0 mph 45% 0.00 in 0.00 W/m2
04:03 74.6 °F 51.9 °F 29.85 in East 1.0 mph 14.0 mph 45% 0.00 in 0.00 W/m2
04:08 74.5 °F 51.8 °F 29.85 in East 12.0 mph 15.0 mph 45% 0.00 in 0.00 W/m2
04:13 74.5 °F 51.8 °F 29.84 in Calm   14.0 mph 45% 0.00 in 0.00 W/m2
04:18 74.4 °F 51.7 °F 29.85 in Calm   9.0 mph 45% 0.00 in 0.00 W/m2
04:23 74.4 °F 51.7 °F 29.85 in East 15.0 mph 15.0 mph 45% 0.00 in 0.00 W/m2
04:28 74.4 °F 52.3 °F 29.85 in ESE 2.0 mph 14.0 mph 46% 0.00 in 0.00 W/m2
04:33 74.3 °F 51.6 °F 29.85 in East 2.0 mph 13.0 mph 45% 0.00 in 0.00 W/m2
04:38 74.2 °F 52.1 °F 29.85 in ESE 5.0 mph 11.0 mph 46% 0.00 in 0.00 W/m2
04:43 74.1 °F 52.0 °F 29.85 in ESE 8.0 mph 14.0 mph 46% 0.00 in 0.00 W/m2
04:48 74.0 °F 52.5 °F 29.85 in Calm   9.0 mph 47% 0.00 in 0.00 W/m2
04:53 73.4 °F 52.0 °F 29.85 in Calm   2.0 mph 47% 0.00 in 0.00 W/m2
04:58 73.0 °F 51.6 °F 29.85 in Calm   1.0 mph 47% 0.00 in 0.00 W/m2
05:03 72.8 °F 52.0 °F 29.85 in East 9.0 mph 9.0 mph 48% 0.00 in 0.00 W/m2
05:08 72.6 °F 51.8 °F 29.85 in East 6.0 mph 9.0 mph 48% 0.00 in 0.00 W/m2
05:13 72.4 °F 51.6 °F 29.85 in East 5.0 mph 14.0 mph 48% 0.00 in 0.00 W/m2
05:18 72.3 °F 51.5 °F 29.85 in Calm   13.0 mph 48% 0.00 in 0.00 W/m2
05:23 72.2 °F 51.4 °F 29.85 in ESE 11.0 mph 11.0 mph 48% 0.00 in 0.00 W/m2
05:29 72.2 °F 51.4 °F 29.85 in Calm   12.0 mph 48% 0.00 in 0.00 W/m2
05:34 72.2 °F 51.4 °F 29.85 in East 4.0 mph 9.0 mph 48% 0.00 in 0.00 W/m2
05:39 72.2 °F 51.4 °F 29.85 in ESE 2.0 mph 11.0 mph 48% 0.00 in 0.00 W/m2
05:44 72.3 °F 51.5 °F 29.85 in East 9.0 mph 13.0 mph 48% 0.00 in 0.00 W/m2
05:49 72.3 °F 51.5 °F 29.85 in East 2.0 mph 12.0 mph 48% 0.00 in 0.00 W/m2
05:54 72.3 °F 51.5 °F 29.85 in ESE 6.0 mph 9.0 mph 48% 0.00 in 0.00 W/m2
05:59 72.3 °F 51.5 °F 29.85 in East 7.0 mph 16.0 mph 48% 0.00 in 0.00 W/m2
06:04 72.3 °F 51.5 °F 29.85 in East 5.0 mph 14.0 mph 48% 0.00 in 0.00 W/m2
06:09 72.2 °F 51.4 °F 29.85 in ESE 2.0 mph 13.0 mph 48% 0.00 in 0.00 W/m2
06:14 72.2 °F 51.4 °F 29.85 in East 2.0 mph 15.0 mph 48% 0.00 in 0.00 W/m2
06:19 72.2 °F 51.4 °F 29.85 in Calm   11.0 mph 48% 0.00 in 0.00 W/m2
06:24 72.2 °F 51.4 °F 29.85 in Calm   13.0 mph 48% 0.00 in 0.00 W/m2
06:29 72.2 °F 51.4 °F 29.85 in ESE 11.0 mph 14.0 mph 48% 0.00 in 0.00 W/m2
06:34 72.2 °F 51.4 °F 29.85 in ESE 13.0 mph 15.0 mph 48% 0.00 in 0.00 W/m2
06:39 72.2 °F 51.4 °F 29.85 in East 7.0 mph 11.0 mph 48% 0.00 in 5.00 W/m2
06:44 72.2 °F 51.4 °F 29.85 in Calm   11.0 mph 48% 0.00 in 5.00 W/m2
06:49 72.2 °F 51.4 °F 29.85 in ESE 7.0 mph 14.0 mph 48% 0.00 in 7.00 W/m2
06:54 72.2 °F 51.4 °F 29.85 in Calm   11.0 mph 48% 0.00 in 11.00 W/m2
06:59 72.2 °F 50.9 °F 29.86 in Calm   9.0 mph 47% 0.00 in 14.00 W/m2
07:04 72.2 °F 50.9 °F 29.86 in ESE 7.0 mph 14.0 mph 47% 0.00 in 21.00 W/m2
07:09 72.2 °F 51.4 °F 29.86 in ESE 6.0 mph 12.0 mph 48% 0.00 in 28.00 W/m2
07:14 72.1 °F 50.8 °F 29.86 in ESE 8.0 mph 9.0 mph 47% 0.00 in 30.00 W/m2
07:19 72.1 °F 51.3 °F 29.86 in ESE 5.0 mph 14.0 mph 48% 0.00 in 26.00 W/m2
07:24 72.1 °F 51.3 °F 29.86 in ESE 5.0 mph 11.0 mph 48% 0.00 in 67.00 W/m2
07:29 72.1 °F 51.3 °F 29.87 in East 2.0 mph 11.0 mph 48% 0.00 in 84.00 W/m2
07:34 72.1 °F 51.3 °F 29.87 in Calm   11.0 mph 48% 0.00 in 58.00 W/m2
07:39 72.0 °F 51.8 °F 29.87 in ESE 6.0 mph 11.0 mph 49% 0.00 in 49.00 W/m2
07:44 72.0 °F 51.8 °F 29.87 in ESE 2.0 mph 8.0 mph 49% 0.00 in 69.00 W/m2
07:49 72.0 °F 51.8 °F 29.87 in ESE 8.0 mph 9.0 mph 49% 0.00 in 139.00 W/m2
07:54 72.0 °F 51.8 °F 29.87 in ESE 4.0 mph 9.0 mph 49% 0.00 in 46.00 W/m2
07:59 72.0 °F 52.4 °F 29.87 in ESE 5.0 mph 11.0 mph 50% 0.00 in 181.00 W/m2
08:04 72.0 °F 52.4 °F 29.87 in Calm   8.0 mph 50% 0.00 in 199.00 W/m2
08:09 72.0 °F 52.4 °F 29.87 in Calm   7.0 mph 50% 0.00 in 223.00 W/m2
08:19 72.1 °F 53.0 °F 29.87 in East 4.0 mph 7.0 mph 51% 0.00 in 264.00 W/m2
08:24 72.0 °F 53.4 °F 29.87 in Calm   6.0 mph 52% 0.00 in 283.00 W/m2
08:29 72.1 °F 53.5 °F 29.87 in ESE 1.0 mph 8.0 mph 52% 0.00 in 311.00 W/m2
08:34 72.2 °F 54.1 °F 29.87 in ESE 1.0 mph 8.0 mph 53% 0.00 in 348.00 W/m2
08:36 72.2 °F 54.1 °F 29.87 in Calm   8.0 mph 53% 0.00 in 355.00 W/m2
08:41 72.4 °F 54.3 °F 29.87 in ESE 6.0 mph 7.0 mph 53% 0.00 in 348.00 W/m2
08:46 72.5 °F 54.4 °F 29.88 in Calm   7.0 mph 53% 0.00 in 353.00 W/m2
08:51 72.7 °F 54.1 °F 29.88 in East 2.0 mph 9.0 mph 52% 0.00 in 376.00 W/m2
08:56 72.9 °F 53.7 °F 29.88 in ESE 2.0 mph 11.0 mph 51% 0.00 in 403.00 W/m2
09:01 73.2 °F 54.5 °F 29.88 in Calm   9.0 mph 52% 0.00 in 383.00 W/m2
09:06 73.5 °F 54.3 °F 29.88 in Calm   2.0 mph 51% 0.00 in 450.00 W/m2
09:11 73.8 °F 54.6 °F 29.88 in ESE 1.0 mph 2.0 mph 51% 0.00 in 471.00 W/m2
09:16 74.2 °F 55.5 °F 29.88 in Calm     52% 0.00 in 144.00 W/m2
09:21 74.5 °F 55.7 °F 29.88 in Calm     52% 0.00 in 563.00 W/m2
09:26 74.8 °F 54.9 °F 29.88 in Calm     50% 0.00 in 612.00 W/m2
09:31 75.1 °F 56.3 °F 29.88 in Calm     52% 0.00 in 642.00 W/m2
09:36 75.6 °F 56.2 °F 29.88 in Calm     51% 0.00 in 415.00 W/m2
09:41 76.0 °F 55.5 °F 29.88 in Calm     49% 0.00 in 584.00 W/m2
09:46 76.3 °F 54.0 °F 29.88 in Calm   1.0 mph 46% 0.00 in 541.00 W/m2
09:51 76.7 °F 53.8 °F 29.88 in Calm     45% 0.00 in 209.00 W/m2
09:56 77.2 °F 54.2 °F 29.88 in Calm     45% 0.00 in 192.00 W/m2
10:01 77.5 °F 53.9 °F 29.88 in Calm     44% 0.00 in 265.00 W/m2
10:06 77.8 °F 56.0 °F 29.88 in Calm     47% 0.00 in 204.00 W/m2
10:11 78.0 °F 56.2 °F 29.88 in Calm     47% 0.00 in 598.00 W/m2
10:16 78.2 °F 56.3 °F 29.88 in ESE 2.0 mph 2.0 mph 47% 0.00 in 559.00 W/m2
10:21 78.4 °F 55.3 °F 29.88 in ESE 2.0 mph 2.0 mph 45% 0.00 in 698.00 W/m2
10:26 78.6 °F 55.5 °F 29.88 in Calm     45% 0.00 in 661.00 W/m2
10:31 78.8 °F 56.3 °F 29.88 in Calm     46% 0.00 in 396.00 W/m2
10:36 79.0 °F 56.5 °F 29.88 in Calm     46% 0.00 in 253.00 W/m2
10:41 79.2 °F 56.7 °F 29.88 in Calm     46% 0.00 in 733.00 W/m2
10:46 79.4 °F 56.2 °F 29.87 in Calm     45% 0.00 in 775.00 W/m2
10:51 79.6 °F 55.2 °F 29.88 in SW 6.0 mph 8.0 mph 43% 0.00 in 561.00 W/m2
10:56 79.8 °F 55.3 °F 29.87 in SSW 5.0 mph 6.0 mph 43% 0.00 in 636.00 W/m2
11:01 80.1 °F 55.6 °F 29.87 in SSW 3.0 mph 3.0 mph 43% 0.00 in 642.00 W/m2
11:06 80.4 °F 55.2 °F 29.87 in Calm     42% 0.00 in 438.00 W/m2
11:11 80.7 °F 55.5 °F 29.87 in South 1.0 mph 3.0 mph 42% 0.00 in 715.00 W/m2
11:16 81.0 °F 54.4 °F 29.87 in Calm   2.0 mph 40% 0.00 in 682.00 W/m2
11:21 81.3 °F 55.4 °F 29.87 in South 4.0 mph 4.0 mph 41% 0.00 in 807.00 W/m2
11:26 81.6 °F 54.3 °F 29.87 in Calm   2.0 mph 39% 0.00 in 578.00 W/m2
11:31 82.0 °F 54.6 °F 29.87 in SSW 4.0 mph 4.0 mph 39% 0.00 in 325.00 W/m2
11:36 82.3 °F 54.9 °F 29.87 in SSW 6.0 mph 6.0 mph 39% 0.00 in 759.00 W/m2
11:41 82.5 °F 55.1 °F 29.87 in SSE 5.0 mph 11.0 mph 39% 0.00 in 779.00 W/m2
11:46 82.8 °F 55.3 °F 29.87 in SW 1.0 mph 10.0 mph 39% 0.00 in 788.00 W/m2
11:51 83.2 °F 55.7 °F 29.87 in Calm   3.0 mph 39% 0.00 in 735.00 W/m2
11:56 83.6 °F 56.0 °F 29.86 in SW 3.0 mph 4.0 mph 39% 0.00 in 817.00 W/m2
12:01 83.9 °F 55.6 °F 29.86 in Calm   2.0 mph 38% 0.00 in 814.00 W/m2
12:06 84.0 °F 55.7 °F 29.86 in Calm   7.0 mph 38% 0.00 in 809.00 W/m2
12:11 84.0 °F 55.7 °F 29.86 in NW 6.0 mph 6.0 mph 38% 0.00 in 853.00 W/m2
12:16 84.1 °F 55.0 °F 29.86 in WNW 4.0 mph 4.0 mph 37% 0.00 in 812.00 W/m2
12:21 84.1 °F 55.0 °F 29.86 in West 5.0 mph 7.0 mph 37% 0.00 in 803.00 W/m2
12:27 84.3 °F 55.2 °F 29.85 in Calm     37% 0.00 in 800.00 W/m2
12:32 84.3 °F 55.2 °F 29.85 in Calm     37% 0.00 in 789.00 W/m2
12:36 84.4 °F 55.3 °F 29.85 in WSW 6.0 mph 8.0 mph 37% 0.00 in 796.00 W/m2
12:42 84.5 °F 55.4 °F 29.85 in Calm     37% 0.00 in 796.00 W/m2
12:47 84.6 °F 55.5 °F 29.84 in WNW 2.0 mph 4.0 mph 37% 0.00 in 798.00 W/m2
12:52 84.6 °F 56.2 °F 29.85 in Calm   4.0 mph 38% 0.00 in 802.00 W/m2
12:57 84.9 °F 56.5 °F 29.84 in Calm   8.0 mph 38% 0.00 in 803.00 W/m2
13:02 85.1 °F 55.9 °F 29.84 in SSW 4.0 mph 8.0 mph 37% 0.00 in 744.00 W/m2
13:07 85.6 °F 56.4 °F 29.84 in Calm     37% 0.00 in 795.00 W/m2
13:12 86.0 °F 56.7 °F 29.84 in Calm   1.0 mph 37% 0.00 in 800.00 W/m2
13:17 86.3 °F 56.2 °F 29.84 in WNW 1.0 mph 5.0 mph 36% 0.00 in 793.00 W/m2
13:22 86.0 °F 56.7 °F 29.84 in West 4.0 mph 6.0 mph 37% 0.00 in 789.00 W/m2
13:27 85.8 °F 58.0 °F 29.84 in Calm   5.0 mph 39% 0.00 in 789.00 W/m2
13:32 86.0 °F 58.9 °F 29.83 in SW 5.0 mph 10.0 mph 40% 0.00 in 786.00 W/m2
13:37 86.0 °F 58.2 °F 29.83 in Calm   5.0 mph 39% 0.00 in 779.00 W/m2
13:42 85.9 °F 58.1 °F 29.83 in SSW 4.0 mph 8.0 mph 39% 0.00 in 775.00 W/m2
13:47 86.1 °F 58.3 °F 29.83 in West 3.0 mph 6.0 mph 39% 0.00 in 772.00 W/m2
13:52 86.4 °F 58.5 °F 29.83 in Calm   7.0 mph 39% 0.00 in 766.00 W/m2
13:57 86.7 °F 58.1 °F 29.83 in Calm   2.0 mph 38% 0.00 in 754.00 W/m2
14:02 86.9 °F 57.5 °F 29.83 in SSW 7.0 mph 7.0 mph 37% 0.00 in 758.00 W/m2
14:07 87.4 °F 58.0 °F 29.82 in Calm   6.0 mph 37% 0.00 in 754.00 W/m2
14:12 87.7 °F 57.5 °F 29.82 in West 2.0 mph 8.0 mph 36% 0.00 in 751.00 W/m2
14:17 87.8 °F 57.5 °F 29.83 in Calm   10.0 mph 36% 0.00 in 740.00 W/m2
14:22 87.9 °F 57.6 °F 29.82 in Calm   3.0 mph 36% 0.00 in 737.00 W/m2
14:27 87.3 °F 57.9 °F 29.82 in West 3.0 mph 9.0 mph 37% 0.00 in 728.00 W/m2
14:32 86.7 °F 58.1 °F 29.82 in SW 8.0 mph 9.0 mph 38% 0.00 in 717.00 W/m2
14:37 86.7 °F 57.3 °F 29.82 in Calm   7.0 mph 37% 0.00 in 712.00 W/m2
14:42 86.7 °F 58.1 °F 29.82 in Calm   5.0 mph 38% 0.00 in 701.00 W/m2
14:47 86.6 °F 58.0 °F 29.82 in West 9.0 mph 9.0 mph 38% 0.00 in 694.00 W/m2
14:52 86.3 °F 57.7 °F 29.82 in NW 3.0 mph 3.0 mph 38% 0.00 in 687.00 W/m2
14:57 86.0 °F 57.5 °F 29.82 in SSW 1.0 mph 8.0 mph 38% 0.00 in 671.00 W/m2
15:03 86.0 °F 58.2 °F 29.82 in Calm   6.0 mph 39% 0.00 in 671.00 W/m2
15:08 86.1 °F 57.5 °F 29.81 in Calm   4.0 mph 38% 0.00 in 657.00 W/m2
15:13 86.0 °F 58.2 °F 29.81 in Calm   1.0 mph 39% 0.00 in 647.00 W/m2
15:18 85.7 °F 57.9 °F 29.81 in Calm   4.0 mph 39% 0.00 in 638.00 W/m2
15:23 85.6 °F 58.5 °F 29.81 in Calm   6.0 mph 40% 0.00 in 635.00 W/m2
15:28 85.5 °F 58.5 °F 29.81 in Calm   3.0 mph 40% 0.00 in 622.00 W/m2
15:33 85.3 °F 57.6 °F 29.81 in Calm   1.0 mph 39% 0.00 in 610.00 W/m2
15:38 85.2 °F 58.2 °F 29.81 in SW 6.0 mph 6.0 mph 40% 0.00 in 601.00 W/m2
15:43 85.3 °F 58.3 °F 29.82 in WSW 1.0 mph 5.0 mph 40% 0.00 in 596.00 W/m2
15:48 85.3 °F 58.3 °F 29.81 in Calm     40% 0.00 in 591.00 W/m2
15:53 85.3 °F 58.3 °F 29.81 in Calm   1.0 mph 40% 0.00 in 585.00 W/m2
15:58 85.3 °F 58.3 °F 29.81 in WSW 4.0 mph 7.0 mph 40% 0.00 in 578.00 W/m2
16:03 85.2 °F 57.5 °F 29.81 in Calm   4.0 mph 39% 0.00 in 577.00 W/m2
16:08 85.3 °F 57.6 °F 29.81 in SW 3.0 mph 3.0 mph 39% 0.00 in 561.00 W/m2
16:13 85.4 °F 58.4 °F 29.81 in Calm     40% 0.00 in 541.00 W/m2
16:18 85.4 °F 57.7 °F 29.81 in Calm     39% 0.00 in 526.00 W/m2
16:23 85.3 °F 58.3 °F 29.81 in Calm   2.0 mph 40% 0.00 in 513.00 W/m2
16:28 85.4 °F 58.4 °F 29.81 in WSW 1.0 mph 6.0 mph 40% 0.00 in 494.00 W/m2
16:33 85.4 °F 58.4 °F 29.81 in Calm   4.0 mph 40% 0.00 in 478.00 W/m2
16:38 85.4 °F 58.4 °F 29.80 in West 2.0 mph 5.0 mph 40% 0.00 in 466.00 W/m2
16:43 85.5 °F 57.7 °F 29.80 in WSW 4.0 mph 6.0 mph 39% 0.00 in 443.00 W/m2
16:48 85.6 °F 57.8 °F 29.80 in Calm   4.0 mph 39% 0.00 in 422.00 W/m2
16:53 85.5 °F 58.5 °F 29.80 in Calm   1.0 mph 40% 0.00 in 399.00 W/m2
16:58 85.4 °F 58.4 °F 29.79 in Calm   3.0 mph 40% 0.00 in 383.00 W/m2
17:03 85.3 °F 58.3 °F 29.79 in Calm   1.0 mph 40% 0.00 in 367.00 W/m2
17:08 85.2 °F 58.9 °F 29.79 in WSW 1.0 mph 2.0 mph 41% 0.00 in 352.00 W/m2
17:13 85.1 °F 58.8 °F 29.79 in WSW 2.0 mph 2.0 mph 41% 0.00 in 336.00 W/m2
17:18 84.9 °F 58.6 °F 29.79 in Calm     41% 0.00 in 311.00 W/m2
17:23 84.7 °F 58.4 °F 29.79 in Calm   4.0 mph 41% 0.00 in 294.00 W/m2
17:27 84.7 °F 58.4 °F 29.78 in WSW 2.0 mph 4.0 mph 41% 0.00 in 281.00 W/m2
17:32 84.5 °F 58.2 °F 29.78 in Calm     41% 0.00 in 267.00 W/m2
17:37 84.2 °F 58.0 °F 29.78 in West 4.0 mph 6.0 mph 41% 0.00 in 244.00 W/m2
17:42 84.2 °F 58.0 °F 29.78 in Calm   2.0 mph 41% 0.00 in 234.00 W/m2
17:47 84.1 °F 57.9 °F 29.79 in Calm   1.0 mph 41% 0.00 in 220.00 W/m2
17:52 84.0 °F 59.1 °F 29.79 in Calm     43% 0.00 in 202.00 W/m2
17:57 83.9 °F 58.4 °F 29.79 in Calm     42% 0.00 in 186.00 W/m2
18:02 83.8 °F 58.3 °F 29.79 in WSW 2.0 mph 2.0 mph 42% 0.00 in 163.00 W/m2
18:07 83.7 °F 58.8 °F 29.79 in Calm   2.0 mph 43% 0.00 in 146.00 W/m2
18:12 83.5 °F 58.7 °F 29.79 in Calm     43% 0.00 in 125.00 W/m2
18:17 83.3 °F 59.1 °F 29.79 in Calm   1.0 mph 44% 0.00 in 114.00 W/m2
18:22 83.2 °F 59.0 °F 29.79 in Calm     44% 0.00 in 102.00 W/m2
18:27 83.0 °F 59.5 °F 29.79 in Calm     45% 0.00 in 90.00 W/m2
18:32 82.8 °F 59.3 °F 29.79 in Calm     45% 0.00 in 77.00 W/m2
18:37 82.6 °F 59.1 °F 29.79 in Calm   5.0 mph 45% 0.00 in 51.00 W/m2
18:42 82.3 °F 58.9 °F 29.79 in Calm     45% 0.00 in 46.00 W/m2
18:47 82.0 °F 58.6 °F 29.79 in Calm   2.0 mph 45% 0.00 in 40.00 W/m2
18:52 81.6 °F 58.2 °F 29.79 in Calm     45% 0.00 in 35.00 W/m2
18:57 81.2 °F 58.5 °F 29.79 in Calm     46% 0.00 in 28.00 W/m2
19:02 80.7 °F 59.2 °F 29.79 in Calm     48% 0.00 in 21.00 W/m2
19:07 80.2 °F 58.8 °F 29.79 in Calm     48% 0.00 in 14.00 W/m2
19:12 79.8 °F 58.4 °F 29.79 in Calm     48% 0.00 in 11.00 W/m2
19:17 79.2 °F 58.4 °F 29.79 in Calm   1.0 mph 49% 0.00 in 5.00 W/m2
19:19 79.1 °F 57.8 °F 29.79 in Calm   1.0 mph 48% 0.00 in 0.00 W/m2
19:24 78.6 °F 58.4 °F 29.79 in Calm     50% 0.00 in 0.00 W/m2
19:29 78.0 °F 57.9 °F 29.79 in Calm     50% 0.00 in 0.00 W/m2
19:35 77.5 °F 57.4 °F 29.79 in Calm     50% 0.00 in 0.00 W/m2
19:40 77.3 °F 57.8 °F 29.79 in Calm     51% 0.00 in 0.00 W/m2
19:45 77.2 °F 57.7 °F 29.79 in Calm     51% 0.00 in 0.00 W/m2
19:50 77.0 °F 57.5 °F 29.79 in Calm     51% 0.00 in 0.00 W/m2
19:55 76.7 °F 57.8 °F 29.79 in Calm     52% 0.00 in 0.00 W/m2
20:00 76.4 °F 57.5 °F 29.79 in Calm   1.0 mph 52% 0.00 in 0.00 W/m2
20:05 75.9 °F 57.0 °F 29.79 in Calm   1.0 mph 52% 0.00 in 0.00 W/m2
20:10 75.4 °F 57.1 °F 29.79 in Calm     53% 0.00 in 0.00 W/m2
20:15 75.0 °F 56.7 °F 29.80 in Calm     53% 0.00 in 0.00 W/m2
20:20 74.8 °F 56.5 °F 29.80 in Calm     53% 0.00 in 0.00 W/m2
20:21 74.7 °F 56.5 °F 29.80 in Calm     53% 0.00 in 0.00 W/m2
20:26 74.6 °F 56.9 °F 29.80 in Calm     54% 0.00 in 0.00 W/m2
20:28 74.5 °F 56.8 °F 29.80 in Calm     54% 0.00 in 0.00 W/m2
20:33 74.3 °F 56.6 °F 29.80 in Calm     54% 0.00 in 0.00 W/m2
20:38 74.2 °F 56.5 °F 29.80 in Calm     54% 0.00 in 0.00 W/m2
20:43 74.0 °F 56.3 °F 29.80 in Calm   3.0 mph 54% 0.00 in 0.00 W/m2
20:48 74.0 °F 56.3 °F 29.80 in Calm   3.0 mph 54% 0.00 in 0.00 W/m2
20:53 73.9 °F 56.2 °F 29.80 in Calm     54% 0.00 in 0.00 W/m2
20:58 73.8 °F 56.1 °F 29.80 in Calm     54% 0.00 in 0.00 W/m2
21:03 73.8 °F 56.6 °F 29.80 in Calm     55% 0.00 in 0.00 W/m2
21:08 73.7 °F 56.5 °F 29.80 in Calm     55% 0.00 in 0.00 W/m2
21:13 73.6 °F 56.5 °F 29.80 in Calm     55% 0.00 in 0.00 W/m2
21:18 73.6 °F 56.5 °F 29.80 in Calm     55% 0.00 in 0.00 W/m2
21:23 73.5 °F 56.9 °F 29.80 in Calm     56% 0.00 in 0.00 W/m2
21:28 73.5 °F 56.9 °F 29.79 in Calm     56% 0.00 in 0.00 W/m2
21:33 73.5 °F 56.9 °F 29.79 in Calm   2.0 mph 56% 0.00 in 0.00 W/m2
21:38 73.4 °F 56.8 °F 29.79 in Calm     56% 0.00 in 0.00 W/m2
21:43 73.4 °F 57.3 °F 29.79 in Calm     57% 0.00 in 0.00 W/m2
21:48 73.4 °F 57.3 °F 29.79 in Calm     57% 0.00 in 0.00 W/m2
21:53 73.3 °F 57.2 °F 29.79 in Calm   1.0 mph 57% 0.00 in 0.00 W/m2
21:58 73.2 °F 57.1 °F 29.79 in WSW 2.0 mph 3.0 mph 57% 0.00 in 0.00 W/m2
22:03 73.1 °F 57.0 °F 29.78 in Calm   1.0 mph 57% 0.00 in 0.00 W/m2
22:08 73.1 °F 57.0 °F 29.79 in Calm     57% 0.00 in 0.00 W/m2
22:13 73.0 °F 56.9 °F 29.79 in WSW 2.0 mph 3.0 mph 57% 0.00 in 0.00 W/m2
22:18 73.0 °F 56.9 °F 29.79 in Calm     57% 0.00 in 0.00 W/m2
22:23 72.9 °F 56.8 °F 29.79 in Calm     57% 0.00 in 0.00 W/m2
22:28 72.8 °F 56.7 °F 29.78 in Calm     57% 0.00 in 0.00 W/m2
22:33 72.7 °F 57.1 °F 29.78 in Calm     58% 0.00 in 0.00 W/m2
22:38 72.4 °F 56.8 °F 29.78 in Calm     58% 0.00 in 0.00 W/m2
22:44 72.1 °F 56.5 °F 29.78 in Calm     58% 0.00 in 0.00 W/m2
22:49 71.9 °F 56.8 °F 29.78 in Calm     59% 0.00 in 0.00 W/m2
22:54 71.6 °F 56.5 °F 29.78 in Calm     59% 0.00 in 0.00 W/m2
22:59 71.4 °F 56.8 °F 29.78 in Calm     60% 0.00 in 0.00 W/m2
23:04 71.3 °F 56.7 °F 29.78 in Calm     60% 0.00 in 0.00 W/m2
23:09 71.3 °F 56.7 °F 29.78 in Calm     60% 0.00 in 0.00 W/m2
23:14 71.3 °F 56.7 °F 29.78 in Calm     60% 0.00 in 0.00 W/m2
23:19 71.3 °F 56.2 °F 29.78 in Calm   1.0 mph 59% 0.00 in 0.00 W/m2
23:24 71.3 °F 56.7 °F 29.78 in Calm   2.0 mph 60% 0.00 in 0.00 W/m2
23:29 71.3 °F 56.7 °F 29.78 in Calm     60% 0.00 in 0.00 W/m2
23:34 71.2 °F 56.2 °F 29.78 in Calm   3.0 mph 59% 0.00 in 0.00 W/m2
23:39 71.2 °F 56.2 °F 29.78 in Calm   5.0 mph 59% 0.00 in 0.00 W/m2
23:44 71.1 °F 56.1 °F 29.79 in South 5.0 mph 7.0 mph 59% 0.00 in 0.00 W/m2
23:49 71.1 °F 56.1 °F 29.79 in Calm   6.0 mph 59% 0.00 in 0.00 W/m2
23:54 71.0 °F 56.0 °F 29.79 in Calm   7.0 mph 59% 0.00 in 0.00 W/m2
23:59 71.0 °F 55.5 °F 29.78 in Calm   4.0 mph 58% 0.00 in 0.00 W/m2
Foresthill Weather
 WU-history PHP script courtesy of   Juneau County Weather.
powered by Cumulus v1.9.3 (1059)
Ambient Weather VWS v14.00
Top Contact Website Map Copyright © 2007 - 2018 Foresthillweather.com Never base important decisions on this or any weather information obtained from the Internet